Flag for U.S.A. Weather past 2 weeks in Gloucester, Massachusetts, U.S.A.

Now
76 °F

Passing clouds.


Feels Like: 78 °F
Forecast: 63 / 73 °F
Wind: 9 mph from West

Location: Beverly Municipal Airport

Current Time: Jul 1, 2015 at 8:23:35 PM

Latest Report: Jul 1, 2015 at 7:53 PM


Visibility: 10 mi

Pressure: 29.70 "Hg

Humidity: 62%

Dew point: 62 °F

Location of GloucesterLocation

Historic Weather in Gloucester — Graph

°F

Gloucester temperature yesterday

Maximum temperature yesterday: 77 °F (at 12:53 PM)
Minimum temperature yesterday: 56 °F (at 4:53 AM)
Average temperature yesterday: 68 °F

Past Weeks' High & Low Weather Summary

 TemperatureHumidityPressure
High87 °F (Jun 23, 3:53 PM)94% (Jun 21, 8:50 AM)30.17 "Hg (Jun 21, 8:50 AM)
Low50 °F (Jun 27, 1:53 AM)36% (Jun 17, 3:53 PM)29.62 "Hg (Jun 21, 3:53 PM)
Average66 °F71%29.91 "Hg
* Reported Jun 16 6:53 PM — Jul 1 6:53 PM, Gloucester, Weather by CustomWeather, © 2015

Note: Actual official high and low records may vary slightly from our data, if they occured in-between our weather recording intervals... More about our weather records

Advertising

Gloucester weather history for previous 24 hours

 ConditionsComfort  
Time TempWeatherWind HumidityBarometerVisibility
6:53 PM
Wed, Jul 1
78 °FPassing clouds.9 mph66%29.67 "Hg10 mi
5:53 PM78 °FPassing clouds.10 mph69%29.67 "Hg10 mi
4:53 PM81 °FPassing clouds.13 mph58%29.66 "Hg10 mi
3:53 PM75 °FThundershowers. Scattered clouds.7 mph74%29.66 "Hg10 mi
2:53 PM73 °FSunny.7 mph79%29.69 "Hg10 mi
2:00 PM71 °FBroken clouds.12 mph81%29.72 "Hg10 mi
12:53 PM67 °FMostly cloudy.13 mph85%29.72 "Hg10 mi
11:53 AM66 °FLow clouds.16 mph87%29.73 "Hg10 mi
11:04 AM65 °FMostly cloudy.14 mph91%29.77 "Hg10 mi
10:53 AM65 °FCloudy.16 mph91%29.75 "Hg10 mi
9:53 AM65 °FBroken clouds.21 mph91%29.75 "Hg10 mi
9:00 AM65 °FHeavy rain. Fog.9 mph91%29.86 "Hg2 mi
7:53 AM64 °FRain. Fog.13 mph90%29.84 "Hg4 mi
6:53 AM64 °FMore clouds than sun.10 mph90%29.83 "Hg10 mi
5:53 AM64 °FLow clouds.8 mph90%29.83 "Hg9 mi
5:03 AM63 °FPartly cloudy.6 mph90%29.87 "Hg8 mi
4:53 AM63 °FPassing clouds.7 mph90%29.86 "Hg8 mi
3:53 AM63 °FClear.7 mph90%29.88 "Hg9 mi
2:53 AM64 °FPassing clouds.5 mph87%29.88 "Hg10 mi
1:53 AM64 °FClear.6 mph87%29.90 "Hg10 mi
11:53 PM
Tue, Jun 30
65 °FClear.3 mph76%29.93 "Hg10 mi
10:53 PM66 °FPassing clouds.6 mph73%29.94 "Hg10 mi
9:53 PM63 °FClear.3 mph81%29.94 "Hg10 mi
8:53 PM65 °FSunny.3 mph78%29.92 "Hg10 mi
Weather by CustomWeather, © 2015

See weather overviewHow to use our weather pages